Location: Corralito
(10.2667°N, 66.9500°W)
Time: 06:40:14
(UTC+00:00)

CZ-4B R/B - Pass Details

Date: 08 December 2023
Orbit: 809 x 881 km, 99.0° (Epoch: 22 February)

Event Time Altitude Azimuth Distance (km) Brightness Sun altitude
Rises 23:59:49 0° 157° (SSE) 3,459 6.4 -27.0°
Reaches altitude 10° 00:02:15 10° 152° (SSE) 2,525 5.6 -27.6°
Enters shadow 00:02:26 11° 152° (SSE) 2,457 5.5 -27.6°
